Location: L’Ermite
(48.7679°N, 3.5940°E)
Time: 10:48:14
(UTC+00:00)

Daily predictions for brighter satellites

Satellite Brightness Start Highest point End
(mag) Time Altitude Azimuth Time Altitude Azimuth Time Altitude Azimuth
Cosmos 1400 Rocket 2.8 18:27:16 10° N 18:31:04 56° ENE 18:34:46 10° SSE
ACS3 Solar Sail 3.0 18:26:20 10° ESE 18:31:22 25° ENE 18:36:24 10° N
Cosmos 2322 3.7 18:26:21 10° S 18:31:54 61° ESE 18:37:28 10° NE
Cosmos 2233 Rocket 4.0 18:27:11 10° S 18:33:18 78° E 18:39:29 10° NNE
BlueWalker 3 2.4 18:29:42 10° WNW 18:33:23 57° SSW 18:37:05 10° SE
Cosmos 1066 Rocket 4.3 18:27:43 10° N 18:33:35 68° ENE 18:39:21 10° SSE
Cosmos 1726 1.2 18:33:05 10° S 18:35:50 68° E 18:38:36 10° NNE
Resurs 1-3 3.6 18:32:27 10° SSE 18:36:44 67° ENE 18:41:04 10° N
SAR-Lupe-2 3.5 18:41:08 10° SSE 18:44:42 88° ENE 18:48:18 10° NNW
Cosmos 1315 Rocket 4.3 18:43:48 10° NNE 18:46:40 19° ENE 18:49:14 11° ESE
Meteor PRIRODA 3.3 18:46:12 10° SSE 18:49:28 70° ENE 18:52:46 10° N
ATLAS 2AS CENTAUR R/B 4.4 18:43:39 10° W 18:50:00 32° NNW 18:56:09 10° NE
Cosmos 1125 Rocket 4.1 18:45:41 10° N 18:50:34 39° ENE 18:55:24 10° SE
Cosmos 1842 3.2 18:48:29 10° N 18:52:02 51° ENE 18:55:33 10° SSE
USA 59 Rocket 0.2 18:49:50 10° NW 18:53:38 76° SW 18:58:54 10° SE
Cosmos 1536 3.5 18:50:49 10° SSE 18:54:07 29° E 18:57:29 10° NNE
Okean 3 Rocket 4.2 18:50:33 10° SSE 18:54:35 35° E 18:58:39 10° NNE
Cosmos 2061 Rocket 4.4 18:48:59 10° SSW 18:55:24 72° W 19:01:52 10° N
COSMOS 2428 2.7 18:50:00 10° SSW 18:55:41 75° ESE 19:01:26 10° NNE
Cosmos 1707 2.8 18:52:25 10° N 18:55:52 45° ENE 18:59:17 10° SSE
Cosmos 1515 Rocket 4.1 18:52:00 10° N 18:56:05 39° ENE 19:00:10 10° SE
Cosmos 1818 4.0 18:55:29 10° SW 19:00:55 66° NW 19:06:25 10° NE
Okean O Rocket 2.6 18:57:42 12° ESE 19:01:10 30° ENE 19:05:01 10° N
Cosmos 2278 Rocket 2.2 19:00:56 10° NNW 19:06:38 79° ENE 19:12:18 10° SSE
USA 306 2.4 19:04:41 10° WSW 19:07:47 71° NNW 19:11:25 10° ENE
CZ-4B DEB 4.3 19:03:28 10° SSE 19:08:59 85° WSW 19:14:32 10° NNW
CZ-4 R/B 1.2 19:06:11 10° SSE 19:10:00 88° ENE 19:13:55 10° NNW
CZ-4B R/B 3.2 19:08:05 10° SSE 19:13:29 64° ENE 19:18:48 10° N
NOSS 2-1 (C) 4.3 19:10:15 10° NW 19:13:59 51° SW 19:19:03 10° SSE
Cosmos 1766 Rocket 3.6 19:09:50 10° SSW 19:14:12 81° W 19:18:37 10° N
Resurs 01 Rocket 1.6 19:11:09 10° SSE 19:15:33 69° ENE 19:19:58 10° N
Meteor 2-17 Rocket 4.4 19:09:57 10° N 19:16:02 81° E 19:22:07 10° SSE
Helios 1A 2.9 19:12:33 10° NNE 19:16:39 90° S 19:20:42 10° SSW
USA 290 2.6 19:13:46 10° NNW 19:17:03 65° WSW 19:20:16 10° SSE
Meteor 2-10 4.4 19:12:03 10° SSE 19:17:22 47° E 19:22:50 10° NNE
ADEOS 4.2 19:13:05 10° S 19:18:13 58° WSW 19:23:23 10° NNW
GEOS 3 Rocket 3.7 19:13:40 11° SE 19:18:43 77° SW 19:23:56 10° NW
USA 186 1.7 19:17:45 11° SSE 19:20:51 83° ENE 19:24:05 10° N
CZ-4B R/B 4.2 19:16:28 10° S 19:21:04 51° W 19:25:47 10° NNW
Cosmos 1814 Rocket 4.2 19:16:44 10° SSW 19:22:01 78° WNW 19:27:18 10° NNE
PAYLOAD B 4.3 19:16:30 10° SSE 19:22:06 85° WSW 19:27:46 10° NNW
KORONAS-FOTON 4.2 19:19:16 10° NNW 19:22:56 63° W 19:26:34 10° S
MOS 1-B 4.4 19:17:40 10° SSE 19:23:22 63° ENE 19:29:05 10° N
SPOT 5 3.7 19:22:14 21° ESE 19:24:11 29° ENE 19:28:00 10° N
Okean-O 3.5 19:23:04 22° ESE 19:24:57 30° ENE 19:28:48 10° N
Cosmos 2208 Rocket 4.5 19:21:35 10° SSE 19:26:22 37° ESE 19:31:15 10° NE
USA 267 4.1 19:21:23 10° ENE 19:27:28 44° N 19:33:36 10° WNW
Cosmos 1408 Rocket 3.8 19:24:09 10° SSE 19:28:18 45° E 19:32:31 10° NNE
ISS -3.6 19:26:18 10° SW 19:29:33 49° SSE 19:30:43 32° E
NOSS 3-3 (A) 4.2 19:25:01 10° S 19:29:54 37° ESE 19:35:28 10° NE
CZ-4B R/B 3.4 19:26:17 10° S 19:30:06 58° W 19:34:07 10° NNW
SL-08 R/B 4.2 19:28:21 10° N 19:33:10 54° WNW 19:37:57 10° SW
Cosmos 2237 Rocket 2.1 19:29:10 10° SSW 19:34:42 63° ESE 19:40:16 10° NNE
CSL-04 Rocket 3.6 19:31:54 10° SSE 19:37:16 88° ENE 19:42:37 10° NNW
Aureole 3 Rocket 4.0 19:30:55 10° SSE 19:37:22 46° E 19:42:05 10° NNE
Cosmos 2219 Rocket 4.2 19:34:44 10° WSW 19:39:43 30° NW 19:44:42 10° NNE
Cosmos 1356 Rocket 4.1 19:38:50 10° NNW 19:42:56 53° W 19:46:59 10° S
Lacrosse 4 Rocket 4.3 19:42:20 10° WNW 19:44:39 14° WSW 19:46:57 10° SW
Meteor 1-11 Rocket 3.6 19:40:47 10° S 19:46:23 74° E 19:51:55 10° NNE
IKONOS-2 4.4 19:42:21 10° NNE 19:46:28 62° ESE 19:50:24 11° S
MOS 1 Rocket 4.1 19:45:38 30° ESE 19:47:26 39° ENE 19:52:21 10° N
CARTOSAT-1 4.2 19:46:28 10° S 19:50:37 53° W 19:54:48 10° NNW
Cosmos 158 Rocket 3.7 19:46:48 10° SSW 19:51:38 68° ESE 19:56:28 10° NNE
ATLAS CENTAUR R/B 0.9 19:48:11 10° SSW 19:51:42 67° SE 19:54:53 14° NE
NOSS 3-4 (A) 4.3 19:46:58 10° NW 19:53:17 46° NE 19:57:11 26° E
NOSS 3-4 (C) 4.3 19:47:05 10° NW 19:53:23 46° NE 19:57:18 26° E
Cosmos 1805 Rocket 3.6 19:52:47 33° SSE 19:54:25 54° E 19:58:39 10° NNE
Cosmos 1428 Rocket 4.3 19:52:01 10° N 19:58:10 78° E 20:02:18 22° SSE
Cosmos 1733 3.6 19:55:23 10° SSW 19:58:45 54° WNW 20:02:08 10° N
USA 276 3.5 19:58:38 10° W 20:00:38 25° SW 20:00:38 25° SW
SL-24 R/B 4.4 20:01:56 39° SE 20:03:28 58° E 20:08:12 10° N
Cosmos 2369 Rocket 3.1 19:58:20 10° NNW 20:03:35 35° NE 20:05:12 30° E
Cosmos 1980 3.8 19:58:35 10° SSW 20:04:16 77° WNW 20:09:59 10° NNE
Meteor 1-21 4.3 20:02:44 10° N 20:08:27 60° ENE 20:10:23 40° SE
Sich 1 2.8 20:07:33 31° S 20:09:35 84° E 20:13:55 10° N
Cosmos 1943 Rocket 2.8 20:05:18 10° NW 20:10:39 52° WSW 20:14:05 21° S
Cosmos 1707 Rocket 4.2 20:07:09 10° N 20:11:05 38° ENE 20:11:05 38° ENE
DELTA 2 DEB (DPAF) 4.1 20:08:01 10° NNE 20:11:47 54° E 20:11:47 54° E
Terra 2.2 20:13:52 43° ENE 20:14:09 43° ENE 20:18:36 10° N
Cosmos 2298 Rocket 4.0 20:09:13 10° NNW 20:14:32 87° WSW 20:16:27 41° SSE
ACS3 Solar Sail 2.1 20:09:36 16° S 20:14:49 73° WSW 20:21:16 10° NNW
ERS-1 Rocket 3.1 20:14:04 47° ESE 20:14:54 53° ENE 20:19:47 10° N
Nadezhda 4 Rocket 4.5 20:09:17 10° NNW 20:15:26 60° W 20:21:37 10° S
Cosmos 2195 Rocket 4.4 20:09:30 10° N 20:15:40 88° W 20:19:12 27° S
Cosmos 2150 Rocket 3.9 20:11:03 10° NNW 20:16:14 84° WSW 20:17:56 43° SSE
USA 32 4.0 20:11:35 10° N 20:16:51 84° W 20:19:24 32° S
Cosmos 1570 Rocket 4.3 20:11:40 10° SSW 20:16:56 68° WNW 20:22:12 10° NNE
Cosmos 1975 3.5 20:18:58 40° NE 20:18:58 40° NE 20:21:42 10° NNE
Cosmos 1805 3.2 20:21:35 67° WSW 20:21:52 71° WNW 20:25:31 10° N
Cosmos 1315 Rocket 3.8 20:19:10 10° NNW 20:22:57 43° W 20:24:27 29° SW
Cosmos 2026 Rocket 3.9 20:16:44 10° N 20:23:01 88° ENE 20:25:51 35° S
Cosmos 1092 Rocket 3.9 20:17:08 10° N 20:23:30 87° E 20:26:28 35° S
Ariane Rocket 3.5 20:24:22 40° ENE 20:24:29 40° ENE 20:29:12 10° N
Meteor 2-12 Rocket 4.3 20:20:38 10° N 20:26:50 79° E 20:28:55 44° SSE
IRS-1A Rocket 4.2 20:26:28 48° SE 20:28:07 77° ENE 20:33:49 10° NNW
Okean 3 4.2 20:29:42 10° N 20:32:44 40° NNE 20:32:44 40° NNE
SL-16 R/B 2.2 20:35:16 59° ESE 20:35:16 59° ESE 20:40:41 10° NE
Okean O Rocket 3.1 20:35:02 21° SSW 20:37:20 34° W 20:41:24 10° NNW
Cosmos 1634 Rocket 3.9 20:36:32 37° S 20:39:12 81° E 20:45:33 10° N
SL-14 R/B 4.0 20:36:56 10° NNW 20:40:35 47° W 20:40:36 47° W
Cosmos 1656 Rocket 3.5 20:34:56 10° NNW 20:40:37 79° ENE 20:41:19 68° ESE
USA 306 3.9 20:37:32 10° WNW 20:40:35 35° NNW 20:40:35 35° NNW
USA 59 Rocket 3.0 20:41:25 10° W 20:42:58 11° WSW 20:44:38 10° SW
IRS-1C Rocket 4.0 20:45:02 68° S 20:45:44 86° WSW 20:51:03 10° NNW
Cosmos 773 Rocket 3.9 20:45:39 43° SSW 20:47:27 85° WNW 20:52:47 10° NNE
Cosmos 2278 Rocket 4.5 20:46:13 10° WNW 20:50:01 19° W 20:53:48 10° SW
Okean 1-7 4.4 20:46:05 10° N 20:48:39 30° NNE 20:48:39 30° NNE
Cosmos 2263 4.4 20:46:07 10° NNW 20:51:46 56° ENE 20:51:55 55° ENE
Resurs 01 Rocket 4.4 20:49:57 10° WSW 20:52:26 15° W 20:54:56 10° NW
Cosmos 2228 Rocket 3.4 20:51:10 10° NNW 20:55:20 69° NW 20:55:20 69° NW
SPOT 3 Rocket 3.6 21:00:55 70° NNE 21:00:55 70° NNE 21:05:39 10° NNW
Okean-O 4.0 21:00:31 31° WSW 21:01:15 33° W 21:05:15 10° NNW
SPOT 5 3.9 21:01:23 34° WSW 21:02:06 36° W 21:06:16 10° NNW
Cosmos 2142 Rocket 4.3 21:02:36 70° E 21:02:36 70° E 21:08:36 10° NNE
NOSS 3-3 (C) 4.2 21:00:43 10° SW 21:06:11 64° NW 21:12:42 10° NE
ISS -0.9 21:03:02 10° W 21:03:42 15° W 21:03:42 15° W
USA 267 3.5 21:08:22 49° ENE 21:09:55 62° NNE 21:16:21 10° NW
Cosmos 724 4.4 21:15:30 64° NNE 21:15:30 64° NNE 21:20:23 10° NE
Cosmos 2180 Rocket 4.4 21:17:01 77° ENE 21:17:01 77° ENE 21:23:12 10° NNE
Cosmos 2237 Rocket 4.1 21:14:24 10° WSW 21:19:11 28° NW 21:24:00 10° NNE
Cosmos 2279 Rocket 4.0 21:19:59 67° SW 21:20:45 76° W 21:27:01 10° N
Cosmos 1607 4.1 21:18:02 10° SW 21:24:30 74° NW 21:30:58 10° NE
Cosmos 2297 4.2 21:23:51 10° NW 21:28:59 52° W 21:28:59 52° W
ATLAS CENTAUR R/B 3.7 21:26:43 10° W 21:29:30 20° NNW 21:29:51 20° NNW
Spot 2 Rocket 4.2 21:31:06 47° WNW 21:31:06 47° WNW 21:35:26 10° NNW
NOSS 3-4 (A) 4.0 21:37:45 10° NW 21:44:29 59° SW 21:44:37 59° SW
NOSS 3-4 (C) 4.0 21:37:51 10° NW 21:44:36 60° SW 21:44:43 60° SW
Cosmos 2369 Rocket 3.0 21:42:18 10° NW 21:46:58 44° W 21:46:58 44° W
Terra 3.7 21:52:34 25° W 21:52:34 25° W 21:55:48 10° NW
ACS3 Solar Sail 4.3 21:56:55 10° WSW 21:59:58 14° W 22:03:02 10° NW
SL-16 R/B 3.9 22:17:00 21° W 22:19:35 30° NW 22:24:33 10° NNE
ATLAS 2AS CENTAUR R/B 3.7 22:29:38 10° NW 22:36:00 37° NNE 22:36:31 37° NE
USA 267 4.3 22:55:43 35° WNW 22:55:43 35° WNW 22:59:26 10° WNW
Cosmos 1697 Rocket 4.4 22:48:58 10° NNW 22:52:28 28° NNE 22:52:28 28° NNE
Cosmos 2344 3.9 23:19:41 10° NW 23:27:14 78° WNW 23:27:14 78° WNW
Cosmos 1980 Rocket 3.9 23:49:10 10° NNW 23:52:13 29° N 23:52:13 29° N
